Weather observations for the past three days for
Golovin, Golovin Airport
Imperial (Metric)
Date Time (akdt) Wind (mph) Vis. (mi.) Weather Sky Cond. Temperature (ºF) Relative Humidity Wind Chill (°F) Heat Index (°F) Pressure Precipitation (in)
Air Dwpt 6 hour altimeter (in) sea level (mb) 1 hr 3 hr 6 hr
Max. Min.
13 03:56 SE 22 G 26 10.00 Overcast and Breezy FEW026 BKN032 OVC090 53.1 48 54 52 83% 29.37 994.0 0.04
13 02:56 SE 21 10.00 Overcast and Breezy BKN014 BKN022 OVC046 53.1 50 89% 29.37 993.9 0.02
13 01:56 SE 18 9.00 Light Rain BKN018 OVC023 54 51.1 90% 29.37 994.2
13 00:56 SE 17 8.00 Light Rain SCT013 BKN019 OVC029 53.1 51.1 93% 29.38 994.5 0.02
12 23:56 SE 18 G 23 6.00 Light Rain Fog/Mist FEW010 BKN014 OVC026 52 51.1 97% 29.38 994.5 0.01
12 22:56 E 18 10.00 Light Rain FEW024 BKN029 OVC060 53.1 50 89% 29.4 994.9 0.01
12 21:56 E 20 10.00 Light Rain FEW034 SCT050 OVC060 53.1 48.9 55.9 53.1 86% 29.42 995.6
12 20:56 E 15 10.00 Light Rain OVC036 53.1 48.9 86% 29.43 996.2
12 18:56 E 23 G 29 10.00 Overcast and Breezy FEW020 BKN046 OVC060 54 50 87% 29.48 997.7
12 17:56 E 20 G 29 10.00 Light Rain BKN047 OVC055 54 50 87% 29.51 998.6
12 16:56 E 23 G 29 10.00 Light Rain and Breezy SCT022 BKN031 OVC065 54 50 87% 29.52 999.2
12 15:56 E 17 G 26 10.00 Overcast FEW029 BKN033 OVC049 55.9 51.1 55.9 53.1 84% 29.55 1000.0 0.03
12 14:56 E 16 10.00 Light Rain FEW018 BKN035 OVC055 55 51.1 87% 29.58 1001.0
12 12:56 E 17 10.00 Light Rain SCT030 OVC049 54 50 87% 29.63 1002.7 0.01 0.01
12 11:56 E 15 10.00 Overcast FEW039 OVC060 55 50 83% 29.64 1003.2
12 10:56 SE 22 G 28 10.00 Overcast and Breezy FEW030 BKN047 OVC060 55 48 77% 29.65 1003.7
12 09:56 SE 21 G 29 10.00 Light Rain and Breezy SCT045 OVC055 55 48 55.9 54 77% 29.66 1004.0
12 07:56 E 14 10.00 Overcast BKN046 OVC065 55 50 83% 29.69 1004.8
12 06:56 E 14 10.00 Overcast BKN055 OVC070 55 51.1 87% 29.7 1005.2
12 05:56 E 12 10.00 Overcast OVC060 54 51.1 90% 29.71 1005.6
12 04:56 SE 13 10.00 Overcast OVC095 54 51.1 90% 29.72 1006.0
12 03:56 SE 14 10.00 Overcast FEW046 OVC075 55 50 60.1 55 83% 29.74 1006.5
12 01:56 E 10 10.00 Overcast SCT050 OVC060 55 51.1 87% 29.76 1007.3
12 00:56 E 9 10.00 Overcast OVC060 57 50 78% 29.77 1007.6
11 23:56 E 7 10.00 Mostly Cloudy BKN065 57 48.9 74% 29.77 1007.7
11 22:56 E 9 10.00 A Few Clouds FEW055 57.9 48 70% 29.78 1007.8
11 20:56 S 5 10.00 Mostly Cloudy SCT060 BKN075 60.1 48 65% 29.79 1008.1
11 19:56 SE 10 10.00 Overcast OVC070 59 48.9 69% 29.8 1008.5
11 18:56 SE 9 10.00 A Few Clouds FEW120 59 48.9 69% 29.8 1008.6
11 17:56 SE 8 10.00 Mostly Cloudy BKN110 57.9 50 75% 29.81 1009.0
11 14:56 S 16 10.00 Overcast FEW055 OVC110 57 48.9 74% 29.82 1009.1
11 13:56 SE 16 10.00 Overcast OVC060 57 50 78% 29.81 1008.9
11 12:56 SE 17 10.00 Overcast OVC047 55.9 50 81% 29.8 1008.8
11 11:56 S 15 10.00 Overcast BKN041 OVC050 55.9 50 81% 29.79 1008.4
11 10:56 SE 18 10.00 Overcast OVC035 54 50 87% 29.79 1008.1
11 09:56 SE 20 10.00 Overcast SCT026 BKN037 OVC070 55 48.9 55 53.1 80% 29.78 1007.8
11 08:56 SE 17 10.00 Overcast OVC050 54 50 87% 29.77 1007.4
11 07:56 SE 20 10.00 Overcast OVC038 53.1 50 89% 29.75 1007.0
11 06:56 SE 18 10.00 Overcast OVC048 53.1 50 89% 29.74 1006.5
11 05:56 SE 18 10.00 Light Rain FEW025 BKN034 OVC043 53.1 50 89% 29.73 1006.2
11 04:56 SE 21 10.00 Light Rain and Breezy FEW017 BKN033 OVC046 53.1 50 89% 29.72 1005.9
11 03:56 SE 20 10.00 Light Rain FEW027 BKN044 OVC055 53.1 50 54 53.1 89% 29.71 1005.5
11 02:56 SE 20 10.00 Light Rain OVC044 53.1 51.1 93% 29.7 1005.2
11 01:56 SE 21 G 24 10.00 Light Rain and Breezy BKN038 OVC045 53.1 51.1 93% 29.69 1004.8
11 00:56 SE 18 G 25 9.00 Light Rain SCT029 BKN050 OVC065 54 51.1 90% 29.68 1004.4
10 23:56 SE 17 8.00 Light Rain BKN017 OVC025 54 52 93% 29.66 1003.8
10 22:56 SE 20 G 24 10.00 Light Rain FEW012 SCT022 OVC070 54 52 93% 29.64 1003.3
10 21:56 SE 16 10.00 Light Rain FEW025 BKN030 OVC050 54 52 55.9 54 93% 29.63 1002.9
10 20:56 SE 16 10.00 Light Rain FEW012 SCT055 OVC070 54 51.1 90% 29.62 1002.6
10 19:56 SE 17 10.00 Light Rain SCT050 OVC070 55 51.1 87% 29.61 1002.3
10 18:56 SE 15 10.00 Overcast OVC034 55 52 90% 29.6 1001.9
10 16:56 SE 20 G 24 10.00 Overcast BKN012 OVC045 55.9 52 87% 29.58 1001.2
10 13:56 SE 14 10.00 Overcast BKN017 OVC025 55 52 90% 29.55 1000.2
10 12:56 SE 14 10.00 Mostly Cloudy BKN015 BKN021 55 51.1 87% 29.54 999.8
10 11:56 E 14 10.00 Overcast SCT027 BKN036 OVC045 54 51.1 90% 29.53 999.6
10 10:56 E 12 10.00 Light Rain BKN022 BKN028 OVC070 52 50 93% 29.53 999.5
10 09:56 Calm 8.00 Light Rain SCT012 BKN026 OVC060 50 48 50 46.9 93% 29.53 999.3
10 08:56 N 5 10.00 Light Rain SCT014 BKN025 OVC065 48.9 46.9 93% 48 29.52 999.0
10 07:56 N 5 10.00 Light Rain OVC014 48 46 93% 47 29.51 998.8
10 06:56 NE 9 5.00 Light Rain Fog/Mist OVC016 46.9 46 97% 43 29.51 998.6
10 05:56 N 5 9.00 Overcast OVC016 48 46 93% 47 29.5 998.5
10 04:56 N 6 10.00 Light Rain OVC021 48 45 89% 46 29.5 998.4
Date Time (akdt) Wind (mph) Vis. (mi.) Weather Sky Cond. Air Dwpt Max. Min. Relative Humidity Wind Chill (°F) Heat Index (°F) altimeter (in) sea level (mb) 1 hr 3 hr 6 hr
6 hour
Temperature (ºF) Pressure Precipitation (in)